Evansville, IN

2:39 AM CST on January 23, 2017 (GMT -0600)
Evansville Regional

Weather History for KEVV - December, 2012

Change the Weather History Date:

Tuesday, December 18, 2012

  Actual Average Record
Temperature  
Mean Temperature 48 °F 35 °F  
Max Temperature 56 °F 43 °F 68 °F (1924)
Min Temperature 39 °F 26 °F -2 °F (1963)
Degree Days  
Heating Degree Days 17 30  
Month to date heating degree days 297 504  
Since 1 July heating degree days 1259 1365  
Cooling Degree Days 0 0  
Month to date cooling degree days 2 0  
Year to date cooling degree days 1845 1397  
Moisture  
Dew Point 34 °F    
Average Humidity 60    
Maximum Humidity 79    
Minimum Humidity 41    
Precipitation  
Precipitation 0.00 in 0.11 in 1.17 in (1957)
Month to date precipitation 1.34 2.27  
Year to date precipitation 31.00 43.82  
Snow  
Snow 0.00 in 0.10 in 0.70 in (1954)
Month to date snowfall 0.0 1.5  
Since 1 July snowfall T 1.8  
Snow Depth 0.00 in    
Sea Level Pressure  
Sea Level Pressure 29.85 in    
Wind  
Wind Speed 9 mph (SW)    
Max Wind Speed 17 mph    
Max Gust Speed 23 mph    
Visibility 10 miles    
Events      
T = Trace of Precipitation, MM = Missing Value Source: NWS Daily Summary

Daily Weather History Graph

Daily Weather History Graph

Search for Another Location

Airport or City:

Trip Planner

Search our weather history database for the weather conditions in past years. The results will help you decide how hot, cold, wet, or windy it might be!

Date:

Astronomy

Dec. 18, 2012 Rise Set
Actual Time 7:01 AM CST 4:32 PM CST
Civil Twilight 6:31 AM CST 5:02 PM CST
Nautical Twilight 5:58 AM CST 5:35 PM CST
Astronomical Twilight 5:26 AM CST 6:07 PM CST
Moon 10:46 AM CST (12/18) 10:52 PM CST (12/18)
Length of Visible Light 10h 30m
Length of Day
9h 31m
Waxing Crescent, 35% of the Moon is Illuminated
Dec 18
Waxing Crescent
Dec 19
First Quarter
Dec 28
Full
Jan 4
Last Quarter
Jan 11
New

Hourly Weather History & Observations

Time (CST) Temp. Windchill Dew Point Humidity Pressure Visibility Wind Dir Wind Speed Gust Speed Precip Events Conditions
12:54 AM 39.9 °F 32.5 °F 34.0 °F 79% 29.81 in 10.0 mi West 12.7 mph - N/A   Overcast
1:54 AM 39.0 °F 32.8 °F 32.0 °F 76% 29.84 in 10.0 mi WNW 9.2 mph - N/A   Overcast
2:54 AM 39.0 °F 34.8 °F 32.0 °F 76% 29.86 in 10.0 mi WNW 5.8 mph - N/A   Overcast
3:54 AM 39.0 °F 33.4 °F 32.0 °F 76% 29.86 in 10.0 mi NW 8.1 mph - N/A   Overcast
4:54 AM 39.0 °F 33.4 °F 33.1 °F 79% 29.88 in 10.0 mi WNW 8.1 mph - N/A   Overcast
5:54 AM 39.2 °F 35.9 °F 33.8 °F 81% 29.88 in 10.0 mi NW 4.6 mph - N/A   Overcast
6:54 AM 39.9 °F - 33.1 °F 77% 29.88 in 10.0 mi Calm Calm - N/A   Overcast
7:54 AM 39.9 °F 37.8 °F 33.1 °F 77% 29.91 in 9.0 mi SW 3.5 mph - N/A   Overcast
8:54 AM 41.0 °F 35.8 °F 33.1 °F 73% 29.91 in 10.0 mi South 8.1 mph - N/A   Mostly Cloudy
9:43 AM 42.8 °F 38.6 °F 33.8 °F 70% 29.90 in 10.0 mi South 6.9 mph - N/A   Scattered Clouds
9:54 AM 44.1 °F 40.8 °F 34.0 °F 68% 29.91 in 10.0 mi SSE 5.8 mph - N/A   Scattered Clouds
10:54 AM 46.0 °F 42.5 °F 35.1 °F 66% 29.90 in 10.0 mi South 6.9 mph - N/A   Partly Cloudy
11:54 AM 48.9 °F - 36.0 °F 61% 29.88 in 10.0 mi South 8.1 mph - N/A   Clear
12:54 PM 52.0 °F - 35.1 °F 53% 29.84 in 10.0 mi South 13.8 mph - N/A   Clear
1:54 PM 54.0 °F - 33.1 °F 45% 29.80 in 10.0 mi South 12.7 mph 18.4 mph N/A   Clear
2:54 PM 55.0 °F - 32.0 °F 42% 29.79 in 10.0 mi South 13.8 mph 19.6 mph N/A   Clear
3:54 PM 55.0 °F - 33.1 °F 43% 29.76 in 10.0 mi South 15.0 mph 23.0 mph N/A   Clear
4:54 PM 52.0 °F - 34.0 °F 50% 29.78 in 10.0 mi SSW 10.4 mph - N/A   Clear
5:54 PM 52.0 °F - 35.1 °F 53% 29.78 in 10.0 mi SSW 12.7 mph - N/A   Clear
6:54 PM 51.1 °F - 36.0 °F 56% 29.80 in 10.0 mi SW 15.0 mph - N/A   Clear
7:54 PM 46.9 °F - 36.0 °F 66% 29.83 in 10.0 mi SW 6.9 mph - N/A   Clear
8:54 PM 48.9 °F - 37.0 °F 64% 29.85 in 10.0 mi SW 9.2 mph - N/A   Clear
9:54 PM 48.9 °F - 37.9 °F 66% 29.86 in 10.0 mi WSW 9.2 mph - N/A   Clear
10:54 PM 44.1 °F 40.1 °F 37.0 °F 76% 29.88 in 10.0 mi SW 6.9 mph - N/A   Clear
11:54 PM 42.1 °F 37.7 °F 36.0 °F 79% 29.90 in 10.0 mi WSW 6.9 mph - N/A   Clear